sat.trackr.live / text

‹ back to catalog

UNKNOWN

NORAD 81946

UNKNOWN UNKNOWN UNKNOWN

§ Identity

Operator
Country
Launch date
Launch site
Launch vehicle
Mass (kg)
RCS (m²)

External: N2YO · Heavens-Above

§ Orbital elements

Epoch: 2026-09-09T13:24:09.312768Z

Period
115.87 min
Inclination
66.4207°
Eccentricity
0.0679901
Mean motion
12.42730267 rev/d
Perigee alt
959.8 km
Apogee alt
2,030.3 km
Semi-major
7,873.2 km
B*
1.4134e-3
RAAN
351.5308°
Arg perigee
221.3303°
Mean anomaly
149.3405°
Rev number
58,153

§ Raw data

UNKNOWN1 81946U          26252.55844112  .00000388  00000+0  14134-2 0  99982 81946  66.4207 351.5308 0679901 221.3303 149.3405 12.42730267581538

JSON: /api/v1/satellites/81946 · /tle

For live sub-satellite position, see the globe view (requires WebGL).

§ Visibility from observer

Set your observer location to see the next 7 days of passes ≥ 10°. The values pass through the URL so the page stays shareable.

No JS? Fill the form by hand. The geolocation button needs JavaScript.